TimeCST,TemperatureF,Dew PointF,Humidity,Sea Level PressureIn,VisibilityMPH,Wind Direction,Wind SpeedMPH,Gust SpeedMPH,PrecipitationIn,Events,Conditions,WindDirDegrees,DateUTC
12:15 AM,14.0,9.3,82,30.41,10.0,West,4.6,-,N/A,,Clear,260,2012-12-05 06:15:00
12:35 AM,12.4,8.1,83,30.41,10.0,SW,4.6,-,N/A,,Clear,230,2012-12-05 06:35:00
12:55 AM,12.2,8.4,85,30.41,10.0,SW,5.8,-,N/A,,Clear,230,2012-12-05 06:55:00
1:15 AM,12.2,8.2,84,30.41,10.0,WSW,4.6,-,N/A,,Clear,240,2012-12-05 07:15:00
1:55 AM,10.0,7.0,87,30.42,10.0,SW,5.8,-,N/A,,Clear,230,2012-12-05 07:55:00
2:15 AM,10.8,7.5,87,30.42,10.0,WSW,4.6,-,N/A,,Clear,250,2012-12-05 08:15:00
2:35 AM,9.3,6.3,87,30.42,10.0,SW,3.5,-,N/A,,Clear,220,2012-12-05 08:35:00
2:55 AM,9.0,6.3,89,30.42,10.0,Calm,Calm,-,N/A,,Clear,0,2012-12-05 08:55:00
3:15 AM,8.4,5.7,89,30.42,10.0,SSW,3.5,-,N/A,,Clear,210,2012-12-05 09:15:00
3:35 AM,9.7,7.2,90,30.42,10.0,SW,4.6,-,N/A,,Clear,230,2012-12-05 09:35:00
3:55 AM,9.9,6.8,87,30.42,10.0,Calm,Calm,-,N/A,,Clear,0,2012-12-05 09:55:00
4:15 AM,8.6,5.7,88,30.42,10.0,SSW,3.5,-,N/A,,Clear,200,2012-12-05 10:15:00
4:35 AM,8.6,5.9,89,30.42,10.0,SSW,3.5,-,N/A,,Clear,210,2012-12-05 10:35:00
4:55 AM,7.0,4.5,89,30.42,10.0,SSW,4.6,-,N/A,,Clear,210,2012-12-05 10:55:00
5:15 AM,8.2,5.5,89,30.42,10.0,South,3.5,-,N/A,,Clear,190,2012-12-05 11:15:00
5:35 AM,7.0,4.5,89,30.41,10.0,Calm,Calm,-,N/A,,Clear,0,2012-12-05 11:35:00
5:55 AM,9.1,6.6,89,30.41,10.0,Calm,Calm,-,N/A,,Clear,0,2012-12-05 11:55:00
6:15 AM,9.0,6.4,89,30.41,10.0,Calm,Calm,-,N/A,,Clear,0,2012-12-05 12:15:00
6:35 AM,9.3,6.4,88,30.41,10.0,Calm,Calm,-,N/A,,Clear,0,2012-12-05 12:35:00
6:55 AM,8.2,5.5,89,30.40,10.0,Calm,Calm,-,N/A,,Clear,0,2012-12-05 12:55:00
8:35 AM,12.4,9.5,88,30.41,10.0,Calm,Calm,-,N/A,,Clear,0,2012-12-05 14:35:00
8:55 AM,13.5,10.2,87,30.41,10.0,Calm,Calm,-,N/A,,Clear,0,2012-12-05 14:55:00
9:15 AM,14.9,11.3,86,30.40,10.0,Calm,Calm,-,N/A,,Clear,0,2012-12-05 15:15:00
9:35 AM,15.6,11.8,85,30.40,10.0,Calm,Calm,-,N/A,,Clear,0,2012-12-05 15:35:00
9:55 AM,17.2,13.1,84,30.40,10.0,Calm,Calm,-,N/A,,Clear,0,2012-12-05 15:55:00
10:15 AM,19.4,14.7,82,30.39,10.0,SE,3.5,-,N/A,,Clear,130,2012-12-05 16:15:00
10:35 AM,20.8,15.3,79,30.37,10.0,SSE,3.5,-,N/A,,Clear,150,2012-12-05 16:35:00
10:55 AM,22.5,16.3,77,30.36,10.0,SSE,5.8,-,N/A,,Clear,150,2012-12-05 16:55:00
11:15 AM,23.4,16.5,75,30.34,10.0,SE,3.5,-,N/A,,Clear,140,2012-12-05 17:15:00
11:35 AM,25.5,16.9,70,30.32,10.0,SSE,6.9,-,N/A,,Clear,160,2012-12-05 17:35:00
11:55 AM,26.6,16.0,64,30.30,10.0,South,9.2,-,N/A,,Clear,170,2012-12-05 17:55:00
12:15 PM,27.3,15.4,61,30.29,10.0,South,9.2,-,N/A,,Clear,180,2012-12-05 18:15:00
12:35 PM,27.7,15.3,60,30.28,10.0,South,11.5,-,N/A,,Clear,180,2012-12-05 18:35:00
12:55 PM,28.0,15.6,60,30.25,10.0,SE,8.1,-,N/A,,Clear,140,2012-12-05 18:55:00
1:15 PM,28.2,15.6,59,30.24,10.0,SSE,8.1,-,N/A,,Clear,150,2012-12-05 19:15:00
1:35 PM,28.4,16.0,60,30.22,10.0,SE,5.8,-,N/A,,Clear,140,2012-12-05 19:35:00
1:55 PM,29.3,16.0,58,30.20,10.0,SE,6.9,-,N/A,,Clear,130,2012-12-05 19:55:00
2:15 PM,29.7,15.8,56,30.19,10.0,ESE,4.6,-,N/A,,Clear,120,2012-12-05 20:15:00
2:35 PM,29.8,15.8,56,30.18,10.0,SE,8.1,-,N/A,,Clear,130,2012-12-05 20:35:00
2:55 PM,30.0,16.0,56,30.16,10.0,SE,5.8,-,N/A,,Clear,140,2012-12-05 20:55:00
3:15 PM,30.2,16.0,56,30.15,10.0,ESE,4.6,-,N/A,,Clear,120,2012-12-05 21:15:00
3:35 PM,30.2,15.6,55,30.14,10.0,SE,5.8,-,N/A,,Mostly Cloudy,140,2012-12-05 21:35:00
3:55 PM,30.2,15.6,55,30.13,10.0,SE,4.6,-,N/A,,Overcast,140,2012-12-05 21:55:00
4:15 PM,30.2,15.4,54,30.12,10.0,SE,4.6,-,N/A,,Overcast,130,2012-12-05 22:15:00
4:35 PM,30.2,15.8,55,30.10,10.0,East,5.8,-,N/A,,Overcast,100,2012-12-05 22:35:00
4:55 PM,30.2,15.8,55,30.08,10.0,East,5.8,-,N/A,,Overcast,100,2012-12-05 22:55:00
5:15 PM,29.7,15.8,56,30.06,10.0,East,6.9,-,N/A,,Overcast,90,2012-12-05 23:15:00
5:35 PM,29.7,16.5,58,30.05,10.0,East,4.6,-,N/A,,Overcast,80,2012-12-05 23:35:00
5:55 PM,29.3,16.3,58,30.04,10.0,East,5.8,-,N/A,,Overcast,100,2012-12-05 23:55:00
6:15 PM,29.7,16.3,58,30.02,10.0,East,5.8,-,N/A,,Scattered Clouds,90,2012-12-06 00:15:00
6:35 PM,29.7,16.3,58,30.01,10.0,East,5.8,-,N/A,,Scattered Clouds,90,2012-12-06 00:35:00
6:55 PM,30.7,16.2,55,30.00,10.0,East,4.6,-,N/A,,Overcast,100,2012-12-06 00:55:00
7:15 PM,31.3,15.8,53,29.97,10.0,SE,4.6,-,N/A,,Mostly Cloudy,140,2012-12-06 01:15:00
7:35 PM,31.1,15.8,53,29.96,10.0,SE,5.8,-,N/A,,Scattered Clouds,130,2012-12-06 01:35:00
7:55 PM,31.5,15.8,52,29.95,10.0,ESE,3.5,-,N/A,,Clear,120,2012-12-06 01:55:00
8:15 PM,32.0,15.6,51,29.95,10.0,Calm,Calm,-,N/A,,Scattered Clouds,0,2012-12-06 02:15:00
8:35 PM,32.0,16.0,52,29.95,10.0,South,3.5,-,N/A,,Scattered Clouds,180,2012-12-06 02:35:00
8:55 PM,32.4,16.7,53,29.94,10.0,SSW,4.6,-,N/A,,Scattered Clouds,200,2012-12-06 02:55:00
9:15 PM,32.5,17.4,54,29.94,10.0,SSW,3.5,-,N/A,,Scattered Clouds,200,2012-12-06 03:15:00
9:35 PM,33.8,17.4,51,29.92,10.0,South,9.2,-,N/A,,Mostly Cloudy,190,2012-12-06 03:35:00
9:55 PM,34.2,17.6,51,29.91,10.0,South,8.1,-,N/A,,Overcast,190,2012-12-06 03:55:00
10:15 PM,34.7,17.4,49,29.89,10.0,SSW,10.4,19.6,N/A,,Overcast,200,2012-12-06 04:15:00
10:35 PM,34.7,17.6,50,29.88,10.0,SSW,11.5,-,N/A,,Overcast,200,2012-12-06 04:35:00
10:55 PM,35.2,17.8,49,29.86,10.0,SSW,11.5,-,N/A,,Overcast,200,2012-12-06 04:55:00
11:15 PM,35.6,18.3,50,29.86,10.0,SSW,10.4,18.4,N/A,,Overcast,210,2012-12-06 05:15:00
11:35 PM,35.8,18.5,50,29.85,10.0,SSW,8.1,-,N/A,,Mostly Cloudy,210,2012-12-06 05:35:00
11:55 PM,36.3,19.0,50,29.84,10.0,SW,10.4,-,N/A,,Overcast,220,2012-12-06 05:55:00